Location: Civry
(47.2902°N, 4.6156°E)
Time: 05:08:21
(UTC+00:00)

Meteor 2-3 Rocket - Pass Details

Date: 09 April 2020
Orbit: 842 x 885 km, 81.2° (Epoch: 29 May)

Event Time Altitude Azimuth Distance (km) Brightness Sun altitude
Rises 21:47:31 0° 347° (NNW) 3,480 7.9 -29.1°
Reaches altitude 10° 21:49:59 10° 347° (NNW) 2,531 7.0 -29.3°
Enters shadow 21:55:21 75° 310° (NW) 898 3.8 -29.8°
